Houston Hull, TX

5:56 AM CDT on October 17, 2019 (GMT -0500)
Sugar Land Municipal-Hull

Weather History for KSGR - August, 2019

Change the Weather History Date:

Wednesday, August 21, 2019

  Actual Average Record
Temperature  
Mean Temperature 83 °F -  
Max Temperature 93 °F 94 °F 102 °F (1948)
Min Temperature 75 °F 73 °F 68 °F (1950)
Cooling Degree Days 18    
Growing Degree Days 33 (Base 50)    
Moisture  
Dew Point 76 °F    
Average Humidity 82    
Maximum Humidity 100    
Minimum Humidity 52    
Precipitation  
Precipitation 0.05 in - - ()
Sea Level Pressure  
Sea Level Pressure 30.00 in    
Wind  
Wind Speed 4 mph ()    
Max Wind Speed 14 mph    
Max Gust Speed -    
Visibility 9.8 miles    
Events Rain    
Averages and records for this station are not official NWS values.
T = Trace of Precipitation, MM = Missing Value Source: Averaged Metar Reports

Daily Weather History Graph

Daily Weather History Graph

Search for Another Location

Airport or City:

Astronomy

Aug. 21, 2019 Rise Set
Actual Time 6:53 AM CDT 7:57 PM CDT
Civil Twilight 6:29 AM CDT 8:21 PM CDT
Nautical Twilight 5:59 AM CDT 8:51 PM CDT
Astronomical Twilight 5:29 AM CDT 9:21 PM CDT
Moon 11:41 PM CDT (8/21) 12:06 PM CDT (8/21)
Length of Visible Light 13h 52m
Length of Day
13h 03m
Waning Gibbous, 69% of the Moon is Illuminated
Aug 21
Waning Gibbous
Aug 23
Last Quarter
Aug 30
New
Sep 5
First Quarter
Sep 13
Full

Hourly Weather History & Observations

Time (CDT) Temp. Heat Index Dew Point Humidity Pressure Visibility Wind Dir Wind Speed Gust Speed Precip Events Conditions
12:53 AM 79.0 °F - 78.1 °F 97% 30.01 in 10.0 mi SSE 4.6 mph - N/A   Clear
1:53 AM 80.1 °F 86.4 °F 78.1 °F 94% 30.02 in 10.0 mi East 3.5 mph - N/A   Clear
2:53 AM 77.0 °F - 75.9 °F 96% 30.01 in 10.0 mi SSE 4.6 mph - N/A   Clear
3:53 AM 77.0 °F - 75.9 °F 96% 30.00 in 10.0 mi Calm Calm - N/A   Clear
4:53 AM 77.0 °F - 75.9 °F 96% 30.00 in 10.0 mi Calm Calm - N/A   Clear
5:53 AM 75.9 °F - 75.9 °F 100% 30.00 in 10.0 mi Calm Calm - N/A   Clear
6:53 AM 75.0 °F - 75.0 °F 100% 30.00 in 7.0 mi Calm Calm - N/A   Clear
7:39 AM 78.1 °F - 78.1 °F 100% 30.01 in 10.0 mi Calm Calm - N/A   Mostly Cloudy
7:48 AM 78.8 °F - 78.8 °F 100% 30.01 in 10.0 mi Calm Calm - N/A   Scattered Clouds
7:53 AM 79.0 °F - 79.0 °F 100% 30.01 in 10.0 mi Calm Calm - N/A   Clear
8:53 AM 84.0 °F 94.8 °F 78.1 °F 82% 30.03 in 10.0 mi South 3.5 mph - N/A   Partly Cloudy
9:53 AM 88.0 °F 101.3 °F 78.1 °F 72% 30.03 in 10.0 mi SSW 5.8 mph - N/A   Partly Cloudy
10:53 AM 88.0 °F 98.5 °F 75.9 °F 67% 30.05 in 10.0 mi South 4.6 mph - N/A   Clear
11:53 AM 91.0 °F 102.9 °F 75.9 °F 61% 30.04 in 10.0 mi SE 5.8 mph - N/A   Clear
12:53 PM 88.0 °F 95.6 °F 73.0 °F 61% 30.03 in 10.0 mi SW 9.2 mph - N/A   Overcast
1:53 PM 91.9 °F 99.5 °F 72.0 °F 52% 30.01 in 10.0 mi WSW 3.5 mph - 0.01 in   Mostly Cloudy
2:53 PM 80.1 °F 85.4 °F 75.9 °F 87% 30.01 in 7.0 mi SSE 13.8 mph - 0.04 in Rain Rain
3:53 PM 89.1 °F 99.1 °F 75.0 °F 63% 29.97 in 10.0 mi South 10.4 mph - 0.00 in   Clear
4:53 PM 88.0 °F 100.2 °F 77.0 °F 70% 29.96 in 10.0 mi SSW 10.4 mph - N/A   Clear
5:53 PM 86.0 °F 95.1 °F 75.0 °F 70% 29.95 in 10.0 mi South 5.8 mph - N/A   Clear
6:53 PM 89.1 °F 99.1 °F 75.0 °F 63% 29.94 in 10.0 mi SSE 6.9 mph - N/A   Clear
7:53 PM 86.0 °F 93.8 °F 73.9 °F 67% 29.95 in 10.0 mi SSE 11.5 mph - N/A   Clear
8:53 PM 84.0 °F 91.2 °F 73.9 °F 72% 29.96 in 10.0 mi SSE 12.7 mph - N/A   Clear
9:53 PM 81.0 °F 86.7 °F 75.0 °F 82% 29.97 in 10.0 mi SSE 8.1 mph - N/A   Clear
10:53 PM 80.1 °F 85.4 °F 75.9 °F 87% 29.97 in 10.0 mi SSE 5.8 mph - N/A   Clear
11:53 PM 80.1 °F 85.4 °F 75.9 °F 87% 29.98 in 10.0 mi SSE 5.8 mph - N/A   Clear